| time (UTC) | temp F | wind direction | speed MPH | gust MPH | rain 1hr in | rain 24hr in | rain mn in | humidity % | barometer mb |
| 20260506121528 | 53 | 349 | 5.0 | 14.0 | 0.00 | 0.00 | 0.00 | 76 | 1013.0 |
| 20260506121037 | 53 | 349 | 4.0 | 14.0 | 0.00 | 0.00 | 0.00 | 76 | 1012.9 |
| 20260506120522 | 54 | 357 | 6.0 | 14.0 | 0.00 | 0.00 | 0.00 | 75 | 1013.2 |
| 20260506120025 | 54 | 360 | 7.0 | 13.0 | 0.00 | 0.00 | 0.00 | 75 | 1012.9 |
| 20260506115549 | 54 | 350 | 3.0 | 12.0 | 0.00 | 0.00 | 0.00 | 74 | 1012.9 |
| 20260506115100 | 54 | 20 | 3.0 | 12.0 | 0.00 | 0.00 | 0.00 | 74 | 1012.9 |
| 20260506114526 | 54 | 341 | 3.0 | 16.0 | 0.00 | 0.00 | 0.00 | 73 | 1012.9 |
| 20260506114029 | 54 | 35 | 5.0 | 16.0 | 0.00 | 0.00 | 0.00 | 73 | 1012.7 |
| 20260506113533 | 54 | 358 | 3.0 | 14.0 | 0.00 | 0.00 | 0.00 | 73 | 1012.5 |
| 20260506113107 | 55 | 27 | 5.0 | 14.0 | 0.00 | 0.00 | 0.00 | 72 | 1012.4 |
| 20260506112533 | 55 | 9 | 4.0 | 12.0 | 0.00 | 0.00 | 0.00 | 72 | 1012.4 |
| 20260506112042 | 55 | 335 | 2.0 | 14.0 | 0.00 | 0.00 | 0.00 | 71 | 1012.3 |
| 20260506111542 | 55 | 316 | 7.0 | 14.0 | 0.00 | 0.00 | 0.00 | 71 | 1012.2 |
| 20260506111024 | 55 | 36 | 5.0 | 12.0 | 0.00 | 0.00 | 0.00 | 71 | 1011.9 |
| 20260506110528 | 55 | 31 | 2.0 | 13.0 | 0.00 | 0.00 | 0.00 | 71 | 1012.0 |
| 20260506110039 | 55 | 341 | 4.0 | 13.0 | 0.00 | 0.00 | 0.00 | 71 | 1011.9 |
| 20260506105525 | 56 | 349 | 2.0 | 9.0 | 0.00 | 0.00 | 0.00 | 71 | 1011.9 |
| 20260506105052 | 56 | 339 | 2.0 | 11.0 | 0.00 | 0.00 | 0.00 | 71 | 1011.8 |
| 20260506104520 | 56 | 22 | 3.0 | 11.0 | 0.00 | 0.00 | 0.00 | 71 | 1011.7 |
| 20260506104058 | 56 | 336 | 2.0 | 10.0 | 0.00 | 0.00 | 0.00 | 71 | 1011.6 |
| 20260506103523 | 56 | 347 | 3.0 | 10.0 | 0.00 | 0.00 | 0.00 | 71 | 1011.7 |
| 20260506103025 | 56 | 318 | 3.0 | 10.0 | 0.00 | 0.00 | 0.00 | 70 | 1011.5 |
| 20260506102531 | 56 | 345 | 3.0 | 13.0 | 0.00 | 0.00 | 0.00 | 71 | 1011.4 |
| 20260506102034 | 56 | 358 | 3.0 | 13.0 | 0.00 | 0.00 | 0.00 | 71 | 1011.4 |
| 20260506101522 | 57 | 322 | 3.0 | 10.0 | 0.00 | 0.00 | 0.00 | 71 | 1011.2 |
| 20260506101057 | 57 | 11 | 2.0 | 10.0 | 0.00 | 0.00 | 0.00 | 71 | 1011.0 |
| 20260506100542 | 57 | 7 | 3.0 | 10.0 | 0.00 | 0.00 | 0.00 | 71 | 1010.9 |
| 20260506100030 | 57 | 347 | 2.0 | 8.0 | 0.00 | 0.00 | 0.00 | 71 | 1011.0 |
| 20260506095553 | 57 | 349 | 2.0 | 14.0 | 0.00 | 0.00 | 0.00 | 71 | 1010.9 |
| 20260506095039 | 57 | 338 | 1.0 | 14.0 | 0.00 | 0.00 | 0.00 | 71 | 1010.8 |
| 20260506094546 | 57 | 345 | 3.0 | 9.0 | 0.00 | 0.00 | 0.00 | 71 | 1010.8 |
| 20260506094028 | 57 | 338 | 1.0 | 6.0 | 0.00 | 0.00 | 0.00 | 71 | 1010.8 |
| 20260506093541 | 57 | 339 | 2.0 | 7.0 | 0.00 | 0.00 | 0.00 | 71 | 1010.8 |
| 20260506093029 | 57 | 347 | 2.0 | 7.0 | 0.00 | 0.00 | 0.00 | 71 | 1010.7 |
| 20260506092533 | 57 | 335 | 1.0 | 7.0 | 0.00 | 0.00 | 0.00 | 71 | 1010.6 |
| 20260506092025 | 57 | 358 | 2.0 | 7.0 | 0.00 | 0.00 | 0.00 | 71 | 1010.6 |
| 20260506091529 | 57 | 360 | 1.0 | 8.0 | 0.00 | 0.00 | 0.00 | 71 | 1010.6 |
| 20260506091102 | 57 | 337 | 2.0 | 12.0 | 0.00 | 0.00 | 0.00 | 71 | 1010.5 |
| 20260506090531 | 57 | 340 | 1.0 | 12.0 | 0.00 | 0.00 | 0.00 | 71 | 1010.6 |
| 20260506090036 | 57 | 38 | 1.0 | 5.0 | 0.00 | 0.00 | 0.00 | 71 | 1010.6 |
| 20260506085542 | 57 | 347 | 1.0 | 7.0 | 0.00 | 0.00 | 0.00 | 71 | 1010.5 |
| 20260506085050 | 58 | 336 | 2.0 | 7.0 | 0.00 | 0.00 | 0.00 | 72 | 1010.3 |
| 20260506084558 | 58 | 333 | 2.0 | 10.0 | 0.00 | 0.00 | 0.00 | 72 | 1010.4 |
| 20260506084029 | 58 | 351 | 2.0 | 10.0 | 0.00 | 0.00 | 0.00 | 72 | 1010.2 |
| 20260506083531 | 58 | 10 | 2.0 | 9.0 | 0.00 | 0.00 | 0.00 | 72 | 1010.2 |
| 20260506083030 | 58 | 341 | 2.0 | 11.0 | 0.00 | 0.00 | 0.00 | 72 | 1010.1 |
| 20260506082536 | 58 | 2 | 2.0 | 11.0 | 0.00 | 0.00 | 0.00 | 72 | 1010.1 |
| 20260506082024 | 58 | 7 | 4.0 | 10.0 | 0.00 | 0.00 | 0.00 | 72 | 1010.2 |
| 20260506081536 | 58 | 24 | 4.0 | 11.0 | 0.00 | 0.00 | 0.00 | 72 | 1010.2 |
| 20260506081027 | 58 | 355 | 2.0 | 11.0 | 0.00 | 0.00 | 0.00 | 72 | 1010.1 |
| 20260506080529 | 58 | 22 | 3.0 | 10.0 | 0.00 | 0.00 | 0.00 | 72 | 1010.2 |
| 20260506073024 | 59 | 14 | 3.0 | 9.0 | 0.00 | 0.00 | 0.00 | 73 | 1009.7 |
| 20260506072529 | 59 | 22 | 4.0 | 11.0 | 0.00 | 0.00 | 0.00 | 73 | 1009.5 |
| 20260506072033 | 59 | 36 | 4.0 | 11.0 | 0.00 | 0.00 | 0.00 | 73 | 1009.5 |
| 20260506071537 | 59 | 36 | 5.0 | 8.0 | 0.00 | 0.00 | 0.00 | 73 | 1009.5 |
| 20260506071024 | 59 | 29 | 3.0 | 13.0 | 0.00 | 0.00 | 0.00 | 73 | 1009.6 |
| 20260506070531 | 59 | 360 | 7.0 | 13.0 | 0.00 | 0.00 | 0.00 | 72 | 1009.7 |
| 20260506062026 | 60 | 348 | 5.0 | 11.0 | 0.00 | 0.00 | 0.00 | 73 | 1009.8 |
| 20260506061534 | 60 | 353 | 1.0 | 12.0 | 0.00 | 0.00 | 0.00 | 73 | 1009.6 |
| 20260506061054 | 60 | 6 | 3.0 | 13.0 | 0.00 | 0.00 | 0.00 | 73 | 1009.7 |
| 20260506060539 | 60 | 3 | 2.0 | 12.0 | 0.00 | 0.00 | 0.00 | 73 | 1009.7 |
| 20260506051024 | 61 | 347 | 1.0 | 6.0 | 0.00 | 0.00 | 0.00 | 74 | 1009.9 |
| 20260506050529 | 61 | 16 | 2.0 | 11.0 | 0.00 | 0.00 | 0.00 | 74 | 1010.0 |
| 20260506050103 | 61 | 350 | 3.0 | 12.0 | 0.00 | 0.00 | 0.00 | 74 | 1010.0 |
| 20260506045034 | 61 | 21 | 4.0 | 11.0 | 0.00 | 0.00 | 0.00 | 74 | 1009.8 |
| 20260506044541 | 61 | 327 | 2.0 | 11.0 | 0.00 | 0.00 | 0.00 | 74 | 1009.6 |
| 20260506044043 | 61 | 7 | 2.0 | 11.0 | 0.00 | 0.00 | 0.00 | 74 | 1009.6 |
| 20260506043526 | 62 | 1 | 4.0 | 13.0 | 0.00 | 0.00 | 0.00 | 74 | 1009.7 |
| 20260506043026 | 62 | 349 | 5.0 | 13.0 | 0.00 | 0.00 | 0.00 | 74 | 1009.7 |
| 20260506042538 | 62 | 29 | 3.0 | 10.0 | 0.00 | 0.00 | 0.00 | 74 | 1009.6 |
| 20260506042028 | 62 | 15 | 1.0 | 8.0 | 0.00 | 0.00 | 0.00 | 74 | 1009.6 |
| 20260506041604 | 62 | 11 | 2.0 | 11.0 | 0.00 | 0.00 | 0.00 | 74 | 1009.6 |
| 20260506041030 | 63 | 326 | 5.0 | 11.0 | 0.00 | 0.00 | 0.00 | 73 | 1009.6 |
| 20260506040533 | 63 | 354 | 4.0 | 15.0 | 0.00 | 0.00 | 0.00 | 73 | 1009.6 |
| 20260506040033 | 63 | 6 | 2.0 | 15.0 | 0.00 | 0.00 | 0.00 | 73 | 1009.5 |
| 20260506035541 | 63 | 328 | 1.0 | 10.0 | 0.00 | 0.00 | 0.00 | 73 | 1009.5 |
| 20260506035044 | 64 | 18 | 2.0 | 9.0 | 0.00 | 0.00 | 0.00 | 73 | 1009.3 |
| 20260506034552 | 64 | 337 | 2.0 | 13.0 | 0.00 | 0.00 | 0.00 | 73 | 1009.3 |
| 20260506034040 | 64 | 355 | 2.0 | 14.0 | 0.00 | 0.00 | 0.00 | 73 | 1009.1 |
| 20260506033525 | 64 | 348 | 3.0 | 14.0 | 0.00 | 0.00 | 0.00 | 72 | 1008.9 |
| 20260506033047 | 64 | 355 | 6.0 | 12.0 | 0.00 | 0.00 | 0.00 | 72 | 1008.9 |
| 20260506032536 | 64 | 3 | 3.0 | 10.0 | 0.00 | 0.00 | 0.00 | 72 | 1008.5 |
| 20260506032041 | 65 | 337 | 4.0 | 14.0 | 0.00 | 0.00 | 0.00 | 71 | 1008.6 |
| 20260506031546 | 65 | 335 | 5.0 | 14.0 | 0.00 | 0.00 | 0.00 | 71 | 1008.7 |
| 20260506031047 | 65 | 15 | 3.0 | 14.0 | 0.00 | 0.00 | 0.00 | 71 | 1008.5 |
| 20260506030553 | 66 | 331 | 5.0 | 14.0 | 0.00 | 0.00 | 0.00 | 70 | 1008.5 |
| 20260506025543 | 66 | 360 | 3.0 | 12.0 | 0.00 | 0.00 | 0.00 | 70 | 1008.3 |
| 20260506025026 | 67 | 348 | 3.0 | 12.0 | 0.00 | 0.00 | 0.00 | 70 | 1008.4 |
| 20260506024535 | 67 | 338 | 3.0 | 11.0 | 0.00 | 0.00 | 0.00 | 70 | 1008.1 |
| 20260506024021 | 68 | 345 | 5.0 | 11.0 | 0.00 | 0.00 | 0.00 | 70 | 1008.0 |
| 20260506023527 | 68 | 14 | 1.0 | 6.0 | 0.00 | 0.00 | 0.00 | 70 | 1007.9 |
| 20260506023033 | 68 | 326 | 0.0 | 10.0 | 0.00 | 0.00 | 0.00 | 70 | 1007.8 |
| 20260506022540 | 68 | 330 | 3.0 | 10.0 | 0.00 | 0.00 | 0.00 | 69 | 1008.0 |
| 20260506022052 | 68 | 356 | 2.0 | 6.0 | 0.00 | 0.00 | 0.00 | 69 | 1007.8 |
| 20260506021543 | 68 | 335 | 1.0 | 5.0 | 0.00 | 0.00 | 0.00 | 69 | 1007.4 |
| 20260506021028 | 68 | 351 | 2.0 | 6.0 | 0.00 | 0.00 | 0.00 | 68 | 1007.2 |
| 20260506020559 | 68 | 360 | 0.0 | 9.0 | 0.00 | 0.00 | 0.00 | 68 | 1007.1 |
| 20260506020023 | 68 | 339 | 2.0 | 9.0 | 0.00 | 0.00 | 0.00 | 68 | 1007.2 |
| 20260506015524 | 68 | 333 | 0.0 | 11.0 | 0.00 | 0.00 | 0.00 | 68 | 1007.2 |
| 20260506015055 | 68 | 357 | 3.0 | 11.0 | 0.00 | 0.00 | 0.00 | 67 | 1007.0 |
| 20260506014526 | 68 | 350 | 1.0 | 12.0 | 0.00 | 0.00 | 0.00 | 67 | 1006.8 |
| 20260506014032 | 69 | 29 | 4.0 | 12.0 | 0.00 | 0.00 | 0.00 | 67 | 1006.5 |
| 20260506013537 | 69 | 347 | 1.0 | 12.0 | 0.00 | 0.00 | 0.00 | 67 | 1006.8 |
| 20260506013025 | 70 | 39 | 0.0 | 11.0 | 0.00 | 0.00 | 0.00 | 68 | 1006.8 |
| 20260506012532 | 70 | 16 | 1.0 | 11.0 | 0.00 | 0.00 | 0.00 | 67 | 1006.4 |
| 20260506012032 | 70 | 336 | 0.0 | 11.0 | 0.00 | 0.00 | 0.00 | 67 | 1006.1 |
| 20260506011537 | 70 | 355 | 4.0 | 11.0 | 0.00 | 0.00 | 0.00 | 66 | 1006.2 |
| 20260506011044 | 70 | 349 | 0.0 | 10.0 | 0.00 | 0.00 | 0.00 | 66 | 1006.2 |
| 20260506010528 | 71 | 31 | 1.0 | 11.0 | 0.00 | 0.00 | 0.00 | 66 | 1006.0 |
| 20260506010030 | 71 | 343 | 0.0 | 9.0 | 0.00 | 0.00 | 0.00 | 66 | 1005.9 |
| 20260506005544 | 71 | 346 | 1.0 | 11.0 | 0.00 | 0.00 | 0.00 | 66 | 1005.7 |
| 20260506005028 | 72 | 333 | 3.0 | 11.0 | 0.00 | 0.00 | 0.00 | 65 | 1005.7 |
| 20260506004532 | 72 | 347 | 1.0 | 10.0 | 0.00 | 0.00 | 0.00 | 65 | 1005.7 |
| 20260506004039 | 72 | 326 | 4.0 | 10.0 | 0.00 | 0.00 | 0.00 | 65 | 1005.5 |
| 20260506003527 | 73 | 326 | 3.0 | 12.0 | 0.00 | 0.00 | 0.00 | 65 | 1005.2 |
| 20260506003035 | 73 | 18 | 4.0 | 12.0 | 0.00 | 0.00 | 0.00 | 64 | 1005.1 |
| 20260506002539 | 73 | 355 | 1.0 | 9.0 | 0.00 | 0.00 | 0.00 | 64 | 1005.2 |
| 20260506002024 | 74 | 341 | 2.0 | 10.0 | 0.00 | 0.00 | 0.00 | 64 | 1005.3 |
| 20260506001532 | 74 | 345 | 3.0 | 12.0 | 0.00 | 0.00 | 0.00 | 64 | 1005.0 |
| 20260506001024 | 75 | 333 | 5.0 | 12.0 | 0.00 | 0.00 | 0.00 | 63 | 1004.9 |
| 20260506000525 | 75 | 341 | 1.0 | 10.0 | 0.00 | 0.00 | 0.00 | 62 | 1004.9 |
| 20260506000033 | 76 | 10 | 2.0 | 10.0 | 0.00 | 0.00 | 0.00 | 61 | 1004.9 |
| 20260505235539 | 76 | 8 | 2.0 | 9.0 | 0.00 | 0.00 | 0.00 | 61 | 1005.0 |
| 20260505235030 | 77 | 323 | 1.0 | 11.0 | 0.00 | 0.00 | 0.00 | 61 | 1004.9 |
| 20260505234537 | 77 | 331 | 1.0 | 11.0 | 0.00 | 0.00 | 0.00 | 60 | 1004.8 |
| 20260505234042 | 78 | 331 | 3.0 | 10.0 | 0.00 | 0.00 | 0.00 | 59 | 1004.8 |
| 20260505233528 | 78 | 349 | 4.0 | 12.0 | 0.00 | 0.00 | 0.00 | 59 | 1004.7 |
| 20260505233032 | 78 | 346 | 1.0 | 12.0 | 0.00 | 0.00 | 0.00 | 59 | 1004.6 |
| 20260505232524 | 78 | 306 | 1.0 | 12.0 | 0.00 | 0.00 | 0.00 | 59 | 1004.6 |
| 20260505232033 | 79 | 332 | 2.0 | 12.0 | 0.00 | 0.00 | 0.00 | 58 | 1004.8 |
| 20260505231537 | 80 | 315 | 5.0 | 10.0 | 0.00 | 0.00 | 0.00 | 58 | 1004.7 |
| 20260505231048 | 80 | 316 | 2.0 | 9.0 | 0.00 | 0.00 | 0.00 | 57 | 1004.6 |
| 20260505230600 | 80 | 304 | 4.0 | 7.0 | 0.00 | 0.00 | 0.00 | 56 | 1004.5 |
| 20260505230025 | 81 | 347 | 3.0 | 14.0 | 0.00 | 0.00 | 0.00 | 56 | 1004.5 |
| 20260505225524 | 81 | 308 | 2.0 | 14.0 | 0.00 | 0.00 | 0.00 | 56 | 1004.4 |
| 20260505225100 | 82 | 303 | 3.0 | 10.0 | 0.00 | 0.00 | 0.00 | 55 | 1004.3 |
| 20260505224524 | 82 | 10 | 1.0 | 7.0 | 0.00 | 0.00 | 0.00 | 55 | 1004.1 |
| 20260505224058 | 83 | 340 | 2.0 | 7.0 | 0.00 | 0.00 | 0.00 | 56 | 1003.9 |
| 20260505223525 | 83 | 293 | 1.0 | 7.0 | 0.00 | 0.00 | 0.00 | 56 | 1003.9 |
| 20260505223033 | 83 | 293 | 3.0 | 10.0 | 0.00 | 0.00 | 0.00 | 55 | 1004.0 |
| 20260505222542 | 84 | 303 | 2.0 | 10.0 | 0.00 | 0.00 | 0.00 | 55 | 1004.0 |
| 20260505222027 | 85 | 337 | 4.0 | 10.0 | 0.00 | 0.00 | 0.00 | 53 | 1003.9 |
| 20260505221531 | 85 | 339 | 2.0 | 11.0 | 0.00 | 0.00 | 0.00 | 52 | 1003.6 |
| 20260505221039 | 85 | 351 | 3.0 | 11.0 | 0.00 | 0.00 | 0.00 | 51 | 1003.6 |
| 20260505220523 | 85 | 295 | 1.0 | 7.0 | 0.00 | 0.00 | 0.00 | 49 | 1003.7 |
| 20260505220032 | 85 | 342 | 2.0 | 10.0 | 0.00 | 0.00 | 0.00 | 48 | 1003.5 |
| 20260505215544 | 86 | 326 | 3.0 | 10.0 | 0.00 | 0.00 | 0.00 | 47 | 1003.5 |
| 20260505215053 | 86 | 306 | 0.0 | 11.0 | 0.00 | 0.00 | 0.00 | 47 | 1003.5 |
| 20260505214553 | 86 | 320 | 0.0 | 11.0 | 0.00 | 0.00 | 0.00 | 46 | 1003.7 |
| 20260505214041 | 87 | 305 | 3.0 | 9.0 | 0.00 | 0.00 | 0.00 | 46 | 1003.8 |
| 20260505213524 | 87 | 307 | 0.0 | 11.0 | 0.00 | 0.00 | 0.00 | 46 | 1003.7 |
| 20260505213032 | 88 | 307 | 4.0 | 11.0 | 0.00 | 0.00 | 0.00 | 47 | 1003.6 |
| 20260505212540 | 87 | 314 | 1.0 | 11.0 | 0.00 | 0.00 | 0.00 | 46 | 1003.6 |
| 20260505212046 | 88 | 322 | 2.0 | 13.0 | 0.00 | 0.00 | 0.00 | 46 | 1003.5 |
| 20260505211528 | 89 | 335 | 4.0 | 13.0 | 0.00 | 0.00 | 0.00 | 47 | 1003.6 |
| 20260505211034 | 90 | 304 | 4.0 | 14.0 | 0.00 | 0.00 | 0.00 | 47 | 1003.6 |
| 20260505210524 | 91 | 260 | 10.0 | 16.0 | 0.00 | 0.00 | 0.00 | 48 | 1003.5 |
| 20260505210033 | 91 | 239 | 6.0 | 20.0 | 0.00 | 0.00 | 0.00 | 49 | 1003.7 |
| 20260505205541 | 91 | 254 | 12.0 | 20.0 | 0.00 | 0.00 | 0.00 | 46 | 1003.5 |
| 20260505205024 | 91 | 285 | 6.0 | 15.0 | 0.00 | 0.00 | 0.00 | 48 | 1003.8 |
| 20260505204534 | 91 | 265 | 4.0 | 15.0 | 0.00 | 0.00 | 0.00 | 49 | 1003.9 |
| 20260505204024 | 91 | 268 | 10.0 | 15.0 | 0.00 | 0.00 | 0.00 | 48 | 1003.6 |
| 20260505203529 | 90 | 259 | 10.0 | 17.0 | 0.00 | 0.00 | 0.00 | 48 | 1003.7 |
| 20260505203034 | 90 | 256 | 12.0 | 17.0 | 0.00 | 0.00 | 0.00 | 49 | 1003.8 |
| 20260505202538 | 90 | 249 | 10.0 | 16.0 | 0.00 | 0.00 | 0.00 | 50 | 1003.8 |
| 20260505202025 | 90 | 249 | 7.0 | 16.0 | 0.00 | 0.00 | 0.00 | 48 | 1003.8 |
| 20260505201537 | 90 | 247 | 8.0 | 15.0 | 0.00 | 0.00 | 0.00 | 50 | 1004.0 |
| 20260505201021 | 90 | 251 | 7.0 | 16.0 | 0.00 | 0.00 | 0.00 | 51 | 1004.1 |
| 20260505200526 | 90 | 268 | 10.0 | 20.0 | 0.00 | 0.00 | 0.00 | 51 | 1004.1 |
| 20260505200032 | 89 | 278 | 9.0 | 20.0 | 0.00 | 0.00 | 0.00 | 52 | 1004.0 |
| 20260505195521 | 89 | 251 | 14.0 | 19.0 | 0.00 | 0.00 | 0.00 | 51 | 1004.2 |
| 20260505195028 | 89 | 264 | 12.0 | 19.0 | 0.00 | 0.00 | 0.00 | 51 | 1004.1 |
| 20260505194532 | 89 | 245 | 12.0 | 19.0 | 0.00 | 0.00 | 0.00 | 54 | 1004.1 |
| 20260505194041 | 89 | 224 | 7.0 | 13.0 | 0.00 | 0.00 | 0.00 | 52 | 1004.1 |
| 20260505193542 | 88 | 264 | 1.0 | 14.0 | 0.00 | 0.00 | 0.00 | 56 | 1004.2 |
| 20260505193048 | 88 | 257 | 10.0 | 17.0 | 0.00 | 0.00 | 0.00 | 54 | 1004.2 |
| 20260505192533 | 88 | 263 | 4.0 | 17.0 | 0.00 | 0.00 | 0.00 | 57 | 1004.3 |
| 20260505192036 | 87 | 231 | 7.0 | 16.0 | 0.00 | 0.00 | 0.00 | 55 | 1004.2 |
| 20260505191521 | 87 | 195 | 4.0 | 16.0 | 0.00 | 0.00 | 0.00 | 57 | 1004.1 |
| 20260505191031 | 87 | 215 | 8.0 | 16.0 | 0.00 | 0.00 | 0.00 | 57 | 1004.1 |
| 20260505190523 | 86 | 223 | 7.0 | 15.0 | 0.00 | 0.00 | 0.00 | 58 | 1004.2 |
| 20260505190030 | 86 | 196 | 7.0 | 16.0 | 0.00 | 0.00 | 0.00 | 57 | 1004.1 |
| 20260505185532 | 85 | 227 | 12.0 | 18.0 | 0.00 | 0.00 | 0.00 | 58 | 1004.1 |
| 20260505185039 | 85 | 228 | 8.0 | 19.0 | 0.00 | 0.00 | 0.00 | 58 | 1004.1 |
| 20260505184545 | 86 | 227 | 11.0 | 19.0 | 0.00 | 0.00 | 0.00 | 58 | 1004.2 |
| 20260505184047 | 85 | 266 | 8.0 | 19.0 | 0.00 | 0.00 | 0.00 | 61 | 1004.1 |
| 20260505183552 | 84 | 217 | 10.0 | 19.0 | 0.00 | 0.00 | 0.00 | 60 | 1004.3 |
| 20260505183037 | 84 | 259 | 11.0 | 19.0 | 0.00 | 0.00 | 0.00 | 60 | 1004.3 |
| 20260505182521 | 84 | 205 | 13.0 | 18.0 | 0.00 | 0.00 | 0.00 | 60 | 1004.3 |
| 20260505182027 | 84 | 228 | 12.0 | 21.0 | 0.00 | 0.00 | 0.00 | 61 | 1004.3 |
| 20260505181536 | 84 | 254 | 12.0 | 21.0 | 0.00 | 0.00 | 0.00 | 61 | 1004.2 |
| 20260505181041 | 84 | 218 | 10.0 | 20.0 | 0.00 | 0.00 | 0.00 | 61 | 1004.2 |
| 20260505180533 | 84 | 228 | 12.0 | 20.0 | 0.00 | 0.00 | 0.00 | 62 | 1004.4 |
| 20260505180037 | 84 | 232 | 6.0 | 14.0 | 0.00 | 0.00 | 0.00 | 62 | 1004.4 |
| 20260505175525 | 84 | 227 | 4.0 | 15.0 | 0.00 | 0.00 | 0.00 | 62 | 1004.4 |
| 20260505175034 | 84 | 205 | 9.0 | 15.0 | 0.00 | 0.00 | 0.00 | 62 | 1004.4 |
| 20260505174526 | 84 | 231 | 8.0 | 17.0 | 0.00 | 0.00 | 0.00 | 62 | 1004.2 |
| 20260505174032 | 84 | 224 | 8.0 | 20.0 | 0.00 | 0.00 | 0.00 | 62 | 1004.3 |
| 20260505173537 | 83 | 205 | 10.0 | 18.0 | 0.00 | 0.00 | 0.00 | 63 | 1004.3 |
| 20260505173039 | 83 | 224 | 10.0 | 17.0 | 0.00 | 0.00 | 0.00 | 64 | 1004.2 |
| 20260505172545 | 83 | 211 | 11.0 | 17.0 | 0.00 | 0.00 | 0.00 | 64 | 1004.3 |
| 20260505172033 | 83 | 218 | 4.0 | 16.0 | 0.00 | 0.00 | 0.00 | 64 | 1004.3 |
| 20260505171541 | 83 | 224 | 9.0 | 17.0 | 0.00 | 0.00 | 0.00 | 64 | 1004.4 |
| 20260505171044 | 82 | 247 | 11.0 | 17.0 | 0.00 | 0.00 | 0.00 | 64 | 1004.4 |
| 20260505170525 | 82 | 245 | 4.0 | 16.0 | 0.00 | 0.00 | 0.00 | 65 | 1004.3 |
| 20260505170030 | 82 | 179 | 6.0 | 17.0 | 0.00 | 0.00 | 0.00 | 65 | 1004.4 |
| 20260505165531 | 82 | 239 | 10.0 | 17.0 | 0.00 | 0.00 | 0.00 | 65 | 1004.5 |
| 20260505165040 | 81 | 222 | 6.0 | 15.0 | 0.00 | 0.00 | 0.00 | 67 | 1004.5 |
| 20260505164525 | 80 | 217 | 5.0 | 15.0 | 0.00 | 0.00 | 0.00 | 68 | 1004.4 |
| 20260505164027 | 80 | 153 | 7.0 | 15.0 | 0.00 | 0.00 | 0.00 | 68 | 1004.4 |
| 20260505163537 | 80 | 202 | 4.0 | 20.0 | 0.00 | 0.00 | 0.00 | 69 | 1004.5 |
| 20260505163023 | 80 | 238 | 5.0 | 20.0 | 0.00 | 0.00 | 0.00 | 68 | 1004.4 |
| 20260505162532 | 80 | 220 | 7.0 | 18.0 | 0.00 | 0.00 | 0.00 | 68 | 1004.3 |
| 20260505162037 | 79 | 251 | 10.0 | 19.0 | 0.00 | 0.00 | 0.00 | 67 | 1004.4 |
| 20260505161543 | 79 | 205 | 9.0 | 19.0 | 0.00 | 0.00 | 0.00 | 69 | 1004.3 |
| 20260505161026 | 79 | 173 | 13.0 | 18.0 | 0.00 | 0.00 | 0.00 | 69 | 1004.3 |
| 20260505160530 | 79 | 202 | 10.0 | 18.0 | 0.00 | 0.00 | 0.00 | 70 | 1004.2 |
| 20260505153049 | 77 | 222 | 8.0 | 19.0 | 0.00 | 0.00 | 0.00 | 73 | 1004.2 |
| 20260505152555 | 76 | 228 | 3.0 | 19.0 | 0.00 | 0.00 | 0.00 | 73 | 1004.1 |
| 20260505152041 | 76 | 212 | 13.0 | 19.0 | 0.00 | 0.00 | 0.00 | 73 | 1004.1 |
| 20260505151530 | 76 | 216 | 12.0 | 18.0 | 0.00 | 0.00 | 0.00 | 73 | 1004.1 |
| 20260505151033 | 76 | 197 | 7.0 | 14.0 | 0.00 | 0.00 | 0.00 | 73 | 1004.1 |
| 20260505150545 | 76 | 206 | 2.0 | 15.0 | 0.00 | 0.00 | 0.00 | 74 | 1004.1 |
| 20260505140520 | 74 | 225 | 4.0 | 14.0 | 0.00 | 0.00 | 0.00 | 78 | 1003.8 |
| 20260505125025 | 71 | 227 | 9.0 | 16.0 | 0.00 | 0.00 | 0.00 | 81 | 1003.8 |
| 20260505124535 | 71 | 214 | 11.0 | 16.0 | 0.00 | 0.00 | 0.00 | 81 | 1003.8 |
| 20260505124025 | 71 | 208 | 4.0 | 15.0 | 0.00 | 0.00 | 0.00 | 82 | 1003.6 |
| 20260505123601 | 71 | 198 | 7.0 | 16.0 | 0.00 | 0.00 | 0.00 | 82 | 1003.6 |
| 20260505123047 | 71 | 200 | 8.0 | 16.0 | 0.00 | 0.00 | 0.00 | 82 | 1003.5 |
| 20260505122553 | 71 | 216 | 0.0 | 16.0 | 0.00 | 0.00 | 0.00 | 82 | 1003.5 |
| 20260505122031 | 71 | 216 | 10.0 | 16.0 | 0.00 | 0.00 | 0.00 | 82 | 1003.3 |